Lambertville, MI

3:18 AM EDT on April 24, 2018 (GMT -0400)
Lambertville

Weather History for KDUH - September, 2013

Change the Weather History Date:

Sunday, September 22, 2013

  Actual Average (KTOL) Record (KTOL)
Temperature  
Mean Temperature 56 °F -  
Max Temperature 62 °F 70 °F 93 °F (1895)
Min Temperature 50 °F 47 °F 29 °F (1974)
Degree Days  
Heating Degree Days 8    
Growing Degree Days 6 (Base 50)    
Moisture  
Dew Point 42 °F    
Average Humidity 62    
Maximum Humidity 82    
Minimum Humidity 45    
Precipitation  
Precipitation 0.00 in - - ()
Sea Level Pressure  
Sea Level Pressure 29.99 in    
Wind  
Wind Speed 3 mph (North)    
Max Wind Speed 9 mph    
Max Gust Speed 16 mph    
Visibility 10 miles    
Events      
Averages and records for this station are not official NWS values.
T = Trace of Precipitation, MM = Missing Value Source: NWS Daily Summary

Daily Weather History Graph

Daily Weather History Graph

Search for Another Location

Airport or City:

Astronomy

Sep. 22, 2013 Rise Set
Actual Time 7:22 AM EDT 7:31 PM EDT
Civil Twilight 6:54 AM EDT 7:59 PM EDT
Nautical Twilight 6:21 AM EDT 8:31 PM EDT
Astronomical Twilight 5:48 AM EDT 9:04 PM EDT
Moon 9:17 PM EDT (9/22) 10:44 AM EDT (9/22)
Length of Visible Light 13h 04m
Length of Day
12h 09m
Waning Gibbous, 89% of the Moon is Illuminated
Sep 22
Waning Gibbous
Sep 26
Last Quarter
Oct 4
New
Oct 11
First Quarter
Oct 18
Full

Hourly Weather History & Observations

Time (EDT) Temp. Dew Point Humidity Pressure Visibility Wind Dir Wind Speed Gust Speed Precip Events Conditions
12:15 AM 53.6 °F 46.4 °F 77% 29.88 in 10.0 mi Calm Calm - N/A   Clear
12:35 AM 51.8 °F 46.4 °F 82% 29.89 in 10.0 mi Calm Calm - N/A   Clear
12:55 AM 51.8 °F 46.4 °F 82% 29.89 in 10.0 mi North 3.5 mph - N/A   Clear
1:15 AM 53.6 °F 46.4 °F 77% 29.89 in 10.0 mi Calm Calm - N/A   Clear
1:35 AM 51.8 °F 46.4 °F 82% 29.89 in 10.0 mi North 4.6 mph - N/A   Clear
1:55 AM 53.6 °F 46.4 °F 77% 29.90 in 10.0 mi North 4.6 mph - N/A   Clear
2:15 AM 53.6 °F 46.4 °F 77% 29.91 in 10.0 mi North 3.5 mph - N/A   Clear
2:35 AM 51.8 °F 46.4 °F 82% 29.91 in 10.0 mi Calm Calm - N/A   Scattered Clouds
2:55 AM 51.8 °F 46.4 °F 82% 29.91 in 10.0 mi North 5.8 mph - N/A   Mostly Cloudy
3:15 AM 53.6 °F 44.6 °F 72% 29.92 in 10.0 mi NNW 4.6 mph - N/A   Overcast
3:35 AM 53.6 °F 44.6 °F 72% 29.92 in 10.0 mi North 3.5 mph - N/A   Overcast
3:55 AM 53.6 °F 44.6 °F 72% 29.92 in 10.0 mi Calm Calm - N/A   Overcast
4:15 AM 53.6 °F 44.6 °F 72% 29.92 in 10.0 mi NNW 4.6 mph - N/A   Overcast
4:35 AM 53.6 °F 44.6 °F 72% 29.93 in 10.0 mi NNW 4.6 mph - N/A   Overcast
4:55 AM 53.6 °F 42.8 °F 67% 29.93 in 10.0 mi North 8.1 mph - N/A   Overcast
5:15 AM 53.6 °F 42.8 °F 67% 29.93 in 10.0 mi North 3.5 mph - N/A   Overcast
5:35 AM 53.6 °F 42.8 °F 67% 29.94 in 10.0 mi North 6.9 mph - N/A   Overcast
5:55 AM 53.6 °F 41.0 °F 62% 29.94 in 10.0 mi North 6.9 mph - N/A   Overcast
6:15 AM 51.8 °F 41.0 °F 67% 29.95 in 10.0 mi NNW 4.6 mph - N/A   Overcast
6:35 AM 51.8 °F 37.4 °F 58% 29.96 in 10.0 mi North 5.8 mph - N/A   Overcast
6:55 AM 51.8 °F 37.4 °F 58% 29.96 in 10.0 mi Calm Calm - N/A   Overcast
7:15 AM 51.8 °F 39.2 °F 62% 29.97 in 10.0 mi Calm Calm - N/A   Overcast
7:35 AM 51.8 °F 37.4 °F 58% 29.97 in 10.0 mi NNW 3.5 mph - N/A   Overcast
7:55 AM 51.8 °F 39.2 °F 62% 29.98 in 10.0 mi North 4.6 mph - N/A   Overcast
8:15 AM 51.8 °F 41.0 °F 67% 29.98 in 10.0 mi Calm Calm - N/A   Overcast
8:35 AM 53.6 °F 41.0 °F 62% 29.99 in 10.0 mi North 3.5 mph - N/A   Overcast
8:55 AM 53.6 °F 41.0 °F 62% 29.99 in 10.0 mi North 4.6 mph - N/A   Overcast
9:15 AM 53.6 °F 41.0 °F 62% 30.00 in 10.0 mi North 4.6 mph - N/A   Mostly Cloudy
9:35 AM 55.4 °F 41.0 °F 58% 30.00 in 10.0 mi North 6.9 mph - N/A   Scattered Clouds
9:55 AM 55.4 °F 37.4 °F 51% 30.01 in 10.0 mi North 9.2 mph 16.1 mph N/A   Scattered Clouds
10:15 AM 53.6 °F 37.4 °F 54% 30.02 in 10.0 mi North 9.2 mph - N/A   Overcast
10:35 AM 55.4 °F 39.2 °F 54% 30.02 in 10.0 mi NNW 4.6 mph - N/A   Overcast
10:55 AM 55.4 °F 41.0 °F 58% 30.03 in 10.0 mi NNW 4.6 mph - N/A   Overcast
11:15 AM 55.4 °F 41.0 °F 58% 30.03 in 10.0 mi NNW 5.8 mph - N/A   Overcast
11:35 AM 55.4 °F 41.0 °F 58% 30.03 in 10.0 mi North 5.8 mph - N/A   Overcast
11:55 AM 55.4 °F 41.0 °F 58% 30.03 in 10.0 mi North 6.9 mph - N/A   Overcast
12:15 PM 55.4 °F 41.0 °F 58% 30.03 in 10.0 mi North 6.9 mph - N/A   Overcast
12:35 PM 57.2 °F 41.0 °F 55% 30.03 in 10.0 mi NE 9.2 mph - N/A   Mostly Cloudy
12:55 PM 57.2 °F 39.2 °F 51% 30.03 in 10.0 mi North 9.2 mph - N/A   Scattered Clouds
1:15 PM 59.0 °F 41.0 °F 51% 30.03 in 10.0 mi NNE 3.5 mph - N/A   Scattered Clouds
1:35 PM 60.8 °F 41.0 °F 48% 30.03 in 10.0 mi NNW 5.8 mph - N/A   Mostly Cloudy
1:55 PM 59.0 °F 41.0 °F 51% 30.03 in 10.0 mi North 4.6 mph - N/A   Scattered Clouds
2:15 PM 60.8 °F 41.0 °F 48% 30.02 in 10.0 mi North 4.6 mph - N/A   Scattered Clouds
2:35 PM 59.0 °F 41.0 °F 51% 30.02 in 10.0 mi North 5.8 mph - N/A   Scattered Clouds
2:55 PM 59.0 °F 41.0 °F 51% 30.01 in 10.0 mi NNW 8.1 mph - N/A   Scattered Clouds
3:15 PM 59.0 °F 39.2 °F 48% 30.01 in 10.0 mi Calm Calm - N/A   Scattered Clouds
3:35 PM 60.8 °F 41.0 °F 48% 30.01 in 10.0 mi North 5.8 mph - N/A   Scattered Clouds
3:55 PM 60.8 °F 41.0 °F 48% 30.00 in 1.5 mi North 6.9 mph - N/A   Haze
4:15 PM 60.8 °F 41.0 °F 48% 30.00 in 10.0 mi North 5.8 mph - N/A   Scattered Clouds
4:35 PM 60.8 °F 41.0 °F 48% 30.00 in 10.0 mi NW 6.9 mph - N/A   Clear
4:55 PM 62.6 °F 41.0 °F 45% 30.00 in 10.0 mi NNW 3.5 mph - N/A   Scattered Clouds
5:15 PM 60.8 °F 41.0 °F 48% 30.00 in 10.0 mi NNE 4.6 mph - N/A   Scattered Clouds
5:35 PM 59.0 °F 41.0 °F 51% 30.01 in 10.0 mi Calm Calm - N/A   Scattered Clouds
5:55 PM 60.8 °F 41.0 °F 48% 30.01 in 10.0 mi Calm Calm - N/A   Scattered Clouds
6:15 PM 60.8 °F 41.0 °F 48% 30.01 in 10.0 mi North 5.8 mph - N/A   Mostly Cloudy
6:35 PM 60.8 °F 41.0 °F 48% 30.02 in 10.0 mi North 3.5 mph - N/A   Scattered Clouds
6:55 PM 59.0 °F 42.8 °F 55% 30.02 in 10.0 mi North 5.8 mph - N/A   Clear
7:15 PM 57.2 °F 42.8 °F 59% 30.03 in 10.0 mi Calm Calm - N/A   Mostly Cloudy
7:35 PM 55.4 °F 42.8 °F 63% 30.03 in 10.0 mi North 3.5 mph - N/A   Overcast
7:55 PM 55.4 °F 42.8 °F 63% 30.04 in 10.0 mi Calm Calm - N/A   Overcast
8:15 PM 53.6 °F 44.6 °F 72% 30.04 in 10.0 mi Calm Calm - N/A   Overcast
8:35 PM 53.6 °F 42.8 °F 67% 30.05 in 10.0 mi North 3.5 mph - N/A   Overcast
8:55 PM 53.6 °F 42.8 °F 67% 30.06 in 10.0 mi North 3.5 mph - N/A   Overcast
9:15 PM 51.8 °F 42.8 °F 71% 30.06 in 10.0 mi North 3.5 mph - N/A   Mostly Cloudy
9:35 PM 51.8 °F 42.8 °F 71% 30.06 in 10.0 mi North 4.6 mph - N/A   Mostly Cloudy
9:55 PM 51.8 °F 42.8 °F 71% 30.07 in 10.0 mi Calm Calm - N/A   Mostly Cloudy
10:15 PM 51.8 °F 42.8 °F 71% 30.07 in 10.0 mi NNE 4.6 mph - N/A   Mostly Cloudy
10:35 PM 51.8 °F 42.8 °F 71% 30.07 in 10.0 mi NNE 3.5 mph - N/A   Overcast
10:55 PM 51.8 °F 42.8 °F 71% 30.07 in 10.0 mi NNE 3.5 mph - N/A   Overcast
11:15 PM 51.8 °F 42.8 °F 71% 30.07 in 10.0 mi NNE 3.5 mph - N/A   Overcast
11:35 PM 51.8 °F 42.8 °F 71% 30.08 in 10.0 mi Calm Calm - N/A   Mostly Cloudy
11:55 PM 50.0 °F 42.8 °F 76% 30.08 in 10.0 mi NNE 3.5 mph - N/A   Scattered Clouds